User: anonymous   Login
Location: Vancouver
(49.2500°N, 123.1330°W)
Time: 05:11:44
(UTC-07:00)
Language:

AO-27 - Orbit

View from above orbital plane
View from above orbital plane
View from above satellite
View from above satellite

Ground track
Ground track

The orbit data is extracted from the following two-line orbital elements,

1 22825U 93061C   17116.90471652  .00000012  00000-0  22477-4 0  9997
2 22825 098.8073 081.8702 0009364 117.5919 242.6215 14.29993704230079
Epoch (UTC): 26 April 2017 21:42:47
Eccentricity: 0.0009364
inclination: 98.8073°
perigee height: 785 km
apogee height: 798 km
right ascension of ascending node: 81.8702°
argument of perigee: 117.5919°
revolutions per day: 14.29993704
mean anomaly at epoch: 242.6215°
orbit number at epoch: 23007

The dashed part of the orbit path shows where the satellite is in the earth's shadow,  

DLR